[[[{"header":{"parameterUnit":"kt","parameterCategory":2,"dx":1,"dy":1,"la1":30.253999710083008,"la2":30.299108505249023,"lo1":-89.0895004272461,"lo2":-89.04439544677734,"nx":28,"ny":28,"refTime":"2022-11-01T21:00:00:Z","depth":0,"parameterNumber":1,"parameterNumberName":"U-component_of_WINDS"},"data":[-3.9243,-3.9353,-3.9354,-3.9479,-3.9501,-3.9587,-3.9618,-3.9658,-3.969,-3.9793,-3.9853,-3.9864,-3.9896,-3.9967,-4.0032,-4.0035,-4.0064,-4.0103,-4.0101,-3.9925,-3.9901,-3.9878,-3.9853,-4.0108,-4.0109,-4.0284,-4.0286,-4.0287,-3.9116,-3.9138,-3.9204,-3.9269,-3.9326,-3.9288,-3.9336,-3.9387,-3.9465,-3.9505,-3.9563,-3.9653,-3.9725,-3.9744,-3.9813,-3.9865,-3.9853,-3.9884,-3.9882,-3.9888,-3.97,-3.9673,-3.9894,-3.9894,-3.9894,-3.9894,-3.9894,-3.9894,-3.8884,-3.8949,-3.8988,-3.906,-3.9092,-3.9135,-3.9198,-3.921,-3.9275,-3.9347,-3.9334,-3.9422,-3.9462,-3.9545,-3.9573,-3.9642,-3.9607,-3.9642,-3.9652,-3.9662,-3.9674,-3.9424,-3.9653,-3.9653,-3.9652,-3.9652,-3.9651,0,-3.8715,-3.871,-3.8773,-3.8837,-3.8889,-3.8938,-3.8983,-3.9022,-3.9012,-3.9066,-3.9145,-3.919,-3.9279,-3.9353,-3.9417,-3.9439,-3.9408,-3.9403,-3.9428,-3.9438,-3.9438,-3.9442,-3.9137,-3.9397,-3.9395,-3.9393,-3.9392,-3.9391,-3.8483,-3.8559,-3.8599,-3.8643,-3.8668,-3.8739,-3.8782,-3.8768,-3.8814,-3.8867,-3.8926,-3.8999,-3.9058,-3.9183,-3.9197,-3.9264,-3.925,-3.9349,-3.926,-3.9265,-3.9255,-3.9252,-3.926,-3.9368,-3.9371,-3.9373,-3.9375,0,-3.8354,-3.8353,-3.847,-3.8501,-3.8512,-3.8592,-3.862,-3.8684,-3.8688,-3.8778,-3.8799,-3.8806,-3.8883,-3.8881,-3.8968,-3.8965,-3.9099,-3.9082,-3.9086,-3.9083,-3.9175,-3.9167,-3.9465,-3.9504,-3.9236,-3.9239,-3.9241,0,-3.8158,-3.8257,-3.825,-3.8318,-3.8428,-3.8411,-3.8521,-3.8535,-3.8568,-3.8639,-3.8601,-3.8668,-3.8654,-3.8721,-3.8716,-3.8825,-3.884,-3.8845,-3.8844,-3.8851,-3.8851,-3.8878,-3.8867,-3.8832,-3.8831,-3.8829,-3.8828,0,-3.7957,-3.8069,-3.8178,-3.8204,-3.8248,-3.83,-3.8321,-3.8357,-3.84,-3.8453,-3.8481,-3.8544,-3.858,-3.8631,-3.8624,-3.8564,-3.8756,-3.8672,-3.8762,-3.8762,-3.8807,-3.8805,-3.9066,-3.8826,-3.8826,-3.8825,-3.8825,0,-3.78,-3.7853,-3.8012,-3.8048,-3.8078,-3.815,-3.8212,-3.8272,-3.8314,-3.8315,-3.8357,-3.8332,-3.8425,-3.8342,-3.8471,-3.8394,-3.8432,-3.8444,-3.8451,-3.8462,-3.837,-3.8521,-3.8768,-3.8795,-3.8468,-3.8465,-3.8462,0,-3.7572,-3.7731,-3.7717,-3.7868,-3.7941,-3.7894,-3.7973,-3.8011,-3.8019,-3.8082,-3.8091,-3.8164,-3.8101,-3.8124,-3.8187,-3.82,-3.8299,-3.8186,-3.8282,-3.8285,-3.8275,-3.8501,-3.854,-3.8713,-3.8424,-3.8428,-3.8431,0,-3.7396,-3.7447,-3.7475,-3.7504,-3.755,-3.761,-3.7701,-3.7769,-3.7813,-3.7858,-3.7935,-3.8035,-3.7993,-3.8031,-3.8017,-3.8084,-3.8232,-3.8029,-3.803,-3.8068,-3.8404,-3.8441,-3.847,-3.8208,-3.8212,-3.8216,-3.8401,0,-3.7163,-3.7241,-3.7315,-3.7379,-3.7424,-3.7518,-3.7514,-3.7563,-3.7545,-3.7551,-3.7663,-3.7693,-3.7763,-3.7793,-3.7777,-3.7929,-3.7904,-3.7857,-3.7779,-3.7926,-3.7987,-3.8011,-3.7688,-3.7685,-3.7683,-3.7682,0,0,-3.6948,-3.706,-3.7041,-3.7128,-3.7166,-3.7115,-3.7216,-3.7247,-3.7311,-3.7339,-3.7294,-3.7441,-3.7467,-3.7604,-3.765,-3.7677,-3.7705,-3.7653,-3.7855,-3.7874,-3.7892,-3.7957,-3.7983,-3.7678,-3.7678,-3.7677,-3.7676,0,-3.6863,-3.6888,-3.6987,-3.7017,-3.7063,-3.7064,-3.7088,-3.7124,-3.7132,-3.7241,-3.7199,-3.7266,-3.7383,-3.7418,-3.745,-3.7636,-3.7602,-3.7657,-3.7759,-3.7835,-3.7857,-3.7876,-3.7945,-3.7969,-3.7671,-3.7672,-3.7672,0,-3.6691,-3.6716,-3.6763,-3.6845,-3.6874,-3.695,-3.6865,-3.6948,-3.7005,-3.6946,-3.7055,-3.7072,-3.7117,-3.7245,-3.7302,-3.7264,-3.7509,-3.7429,-3.7442,-3.7449,-3.7523,-3.7549,-3.7573,-3.7264,-3.7263,-3.7262,0,0,-3.6618,-3.6689,-3.6713,-3.6826,-3.6847,-3.6851,-3.689,-3.6876,-3.6917,-3.6934,-3.6954,-3.6996,-3.7064,-3.7109,-3.7173,-3.7314,-3.7323,-3.7379,-3.7399,-3.7414,-3.743,-3.7508,-3.7534,-3.7256,-3.7256,-3.7256,0,0,-3.6583,-3.6614,-3.6589,-3.6719,-3.6759,-3.679,-3.686,-3.683,-3.6887,-3.6876,-3.6857,-3.6867,-3.6987,-3.7005,-3.6934,-3.7145,-3.7067,-3.7084,-3.713,-3.7154,-3.7173,-3.7167,-3.6854,0,0,0,0,0,-3.6494,-3.661,-3.6587,-3.6608,-3.6711,-3.6803,-3.6816,-3.6803,-3.6748,-3.6804,-3.6816,-3.6776,-3.6963,-3.69,-3.6922,-3.7002,-3.7188,-3.72,-3.7212,-3.7304,-3.7329,-3.7351,0,0,0,0,0,0,-3.6503,-3.6529,-3.6583,-3.662,-3.6643,-3.6799,-3.6703,-3.6703,-3.6742,-3.6733,-3.6775,-3.6777,-3.6768,-3.6888,-3.6908,-3.6984,-3.6847,-3.7193,-3.7203,-3.7212,-3.7313,-3.7334,-3.7351,0,0,0,0,0,-3.6509,-3.653,-3.6699,-3.6618,-3.6638,-3.6648,-3.6699,-3.6698,-3.6728,-3.6747,-3.6748,-3.6714,-3.6771,-3.6787,-3.69,-3.6975,-3.6833,-3.684,-3.72,-3.7208,-3.7215,-3.7323,0,0,0,0,0,0,-3.6514,-3.653,-3.6702,-3.6708,-3.6573,-3.6639,-3.6649,-3.6693,-3.6739,-3.6741,-3.6684,-3.6677,-3.6774,-3.6786,-3.6798,-3.6973,-3.6821,-3.6829,-3.6834,-3.7206,-3.7212,-3.7218,0,0,0,0,0,0,-3.6519,-3.6535,-3.6705,-3.6649,-3.6648,-3.6631,-3.664,-3.6733,-3.674,-3.6674,-3.6669,-3.6681,-3.6755,-3.6786,-3.6795,-3.6942,-3.6813,-3.682,-3.6825,-3.6828,-3.7211,-3.7216,0,0,0,0,0,0,-3.6525,-3.654,-3.6648,-3.6647,-3.6646,-3.6708,-3.6713,-3.682,-3.6691,-3.6673,-3.6679,-3.6674,-3.6757,-3.6766,-3.6794,-3.6937,-3.6941,-3.6813,-3.6818,-3.6822,-3.6824,0,0,0,0,0,0,0,-3.6531,-3.6439,-3.6669,-3.6645,-3.6644,-3.676,-3.6762,-3.6763,-3.669,-3.6685,-3.6681,-3.6676,-3.6771,-3.6779,-3.6787,-3.6932,0,0,-3.6812,-3.6816,0,0,0,0,0,0,0,0,-3.6432,-3.6437,-3.6669,-3.667,-3.6671,-3.6761,-3.6762,-3.6763,-3.6689,-3.6685,-3.6682,-3.6678,-3.6773,-3.678,-3.6786,0,0,0,0,0,0,0,0,0,0,0,0,0,0,0,-3.6669,-3.667,0,-3.6761,-3.6762,-3.6763,-3.6689,-3.6686,-3.6682,-3.6679,-3.6775,-3.678,-3.6786,0,0,0,0,0,0,0,0,0,0,0,0,0,0,0,0,0,0,0,0,0,0,0,0,0,0,0,0,0,0,0,0,0,0,0,0,0,0,0,0,0,0,0,0,0,0,0,0,0,0,0,0,0,0,0,0,0,0,0,0,0,0,0,0,0,0,0,0,0]}],[{"header":{"parameterUnit":"kt","parameterCategory":2,"dx":1,"dy":1,"la1":30.253999710083008,"la2":30.299108505249023,"lo1":-89.0895004272461,"lo2":-89.04439544677734,"nx":28,"ny":28,"refTime":"2022-11-01T21:00:00:Z","depth":0,"parameterNumber":2,"parameterNumberName":"V-component_of_WINDS"},"data":[-6.8592,-6.8735,-6.8739,-6.8902,-6.8932,-6.9044,-6.9085,-6.9137,-6.9178,-6.9309,-6.9385,-6.94,-6.944,-6.9528,-6.9608,-6.9612,-6.9647,-6.9696,-6.9693,-6.9472,-6.9442,-6.9413,-6.9381,-6.9703,-6.9704,-6.9922,-6.9924,-6.9926,-6.8431,-6.8464,-6.8551,-6.8638,-6.8712,-6.8667,-6.873,-6.8795,-6.8895,-6.8947,-6.9021,-6.9135,-6.9225,-6.9248,-6.9334,-6.9399,-6.9382,-6.9422,-6.9418,-6.9425,-6.9189,-6.9155,-6.9435,-6.9435,-6.9435,-6.9435,-6.9435,-6.9435,-6.8139,-6.8225,-6.8279,-6.8374,-6.8418,-6.8475,-6.8556,-6.8573,-6.8657,-6.8749,-6.8733,-6.8845,-6.8895,-6.8998,-6.9032,-6.9118,-6.9073,-6.9117,-6.9129,-6.9141,-6.9155,-6.8842,-6.9132,-6.9131,-6.913,-6.913,-6.9129,0,-6.7927,-6.7924,-6.8008,-6.8093,-6.8161,-6.8226,-6.8286,-6.8335,-6.8325,-6.8395,-6.8494,-6.8552,-6.8664,-6.8757,-6.8836,-6.8862,-6.882,-6.8815,-6.8846,-6.8857,-6.8858,-6.8861,-6.8477,-6.8807,-6.8804,-6.8802,-6.8801,-6.88,-6.7635,-6.7733,-6.779,-6.7848,-6.7882,-6.7975,-6.8031,-6.8015,-6.8075,-6.8144,-6.8218,-6.8311,-6.8384,-6.8541,-6.8557,-6.864,-6.8621,-6.8747,-6.8633,-6.8639,-6.8625,-6.862,-6.8631,-6.877,-6.8774,-6.8777,-6.8779,0,-6.747,-6.7473,-6.7626,-6.7672,-6.7686,-6.7789,-6.7827,-6.791,-6.7916,-6.8031,-6.8057,-6.8067,-6.8164,-6.8159,-6.8267,-6.8262,-6.8431,-6.8408,-6.8414,-6.841,-6.8524,-6.8514,-6.8891,-6.894,-6.8603,-6.8606,-6.8609,0,-6.7222,-6.7351,-6.7349,-6.7437,-6.758,-6.7561,-6.7702,-6.7721,-6.7764,-6.7855,-6.7806,-6.7892,-6.7872,-6.7956,-6.7948,-6.8084,-6.8104,-6.8108,-6.8105,-6.8114,-6.8114,-6.8146,-6.8131,-6.8091,-6.8089,-6.8088,-6.8086,0,-6.6966,-6.7114,-6.7258,-6.7292,-6.7353,-6.742,-6.7448,-6.7496,-6.755,-6.7618,-6.7653,-6.7734,-6.7779,-6.7841,-6.7831,-6.7754,-6.7997,-6.7888,-6.8001,-6.8002,-6.8057,-6.8054,-6.8387,-6.8084,-6.8083,-6.8083,-6.8082,0,-6.6766,-6.6839,-6.7046,-6.7095,-6.7135,-6.7228,-6.7308,-6.7387,-6.7441,-6.7442,-6.7496,-6.7463,-6.7581,-6.7474,-6.7636,-6.7539,-6.7585,-6.76,-6.7608,-6.762,-6.7501,-6.7692,-6.8008,-6.8042,-6.7628,-6.7624,-6.7621,0,-6.6473,-6.6682,-6.6668,-6.6864,-6.696,-6.6901,-6.7004,-6.7052,-6.7063,-6.7145,-6.7155,-6.7247,-6.7167,-6.7195,-6.7276,-6.729,-6.7416,-6.7272,-6.739,-6.7394,-6.738,-6.7671,-6.772,-6.7939,-6.7573,-6.7578,-6.7581,0,-6.6246,-6.6319,-6.6355,-6.6394,-6.6457,-6.6536,-6.6654,-6.6742,-6.6798,-6.6856,-6.6955,-6.7083,-6.7028,-6.7075,-6.7057,-6.7141,-6.733,-6.707,-6.7071,-6.7119,-6.7547,-6.7594,-6.7631,-6.7298,-6.7304,-6.7309,-6.7543,0,-6.5948,-6.6052,-6.6149,-6.6234,-6.6295,-6.6416,-6.6413,-6.6477,-6.6454,-6.6462,-6.6605,-6.6643,-6.6731,-6.677,-6.6748,-6.6942,-6.6909,-6.6848,-6.6745,-6.6935,-6.7012,-6.7044,-6.6631,-6.6628,-6.6625,-6.6623,0,0,-6.5667,-6.5816,-6.5796,-6.5911,-6.5961,-6.5897,-6.6028,-6.6068,-6.6152,-6.6187,-6.6129,-6.6317,-6.635,-6.6524,-6.6583,-6.6617,-6.6652,-6.6586,-6.6844,-6.6869,-6.6892,-6.6974,-6.7007,-6.6619,-6.6618,-6.6617,-6.6616,0,-6.5558,-6.5595,-6.5725,-6.5767,-6.5828,-6.583,-6.5862,-6.591,-6.5921,-6.6061,-6.6006,-6.6091,-6.6241,-6.6283,-6.6325,-6.6564,-6.6517,-6.6591,-6.6722,-6.6818,-6.6847,-6.6871,-6.6958,-6.699,-6.6609,-6.661,-6.661,0,-6.5335,-6.5372,-6.5434,-6.5545,-6.5583,-6.5683,-6.5574,-6.5683,-6.5756,-6.5679,-6.5819,-6.5839,-6.5895,-6.606,-6.6133,-6.6082,-6.6396,-6.6295,-6.6311,-6.632,-6.6412,-6.6446,-6.6476,-6.608,-6.6078,-6.6076,0,0,-6.5241,-6.5337,-6.5371,-6.5521,-6.5549,-6.5555,-6.5607,-6.5589,-6.5642,-6.5663,-6.5688,-6.574,-6.5827,-6.5884,-6.5965,-6.6146,-6.6156,-6.623,-6.6255,-6.6275,-6.6295,-6.6393,-6.6427,-6.6069,-6.6069,-6.6069,0,0,-6.5195,-6.5241,-6.5209,-6.5383,-6.5436,-6.5478,-6.5569,-6.553,-6.5602,-6.5588,-6.5562,-6.5574,-6.5728,-6.5749,-6.5658,-6.5928,-6.5826,-6.5848,-6.5909,-6.5941,-6.5965,-6.5957,-6.5551,0,0,0,0,0,-6.5083,-6.5235,-6.5206,-6.5235,-6.5373,-6.5494,-6.5511,-6.5495,-6.5423,-6.5496,-6.551,-6.5456,-6.5695,-6.5614,-6.5641,-6.5744,-6.5981,-6.5997,-6.6011,-6.6133,-6.6166,-6.6194,0,0,0,0,0,0,-6.5094,-6.5129,-6.5202,-6.5251,-6.5281,-6.5488,-6.5364,-6.5363,-6.5415,-6.5403,-6.5455,-6.5458,-6.5445,-6.5598,-6.5623,-6.5721,-6.5543,-6.5987,-6.6,-6.6012,-6.6144,-6.6171,-6.6194,0,0,0,0,0,-6.5103,-6.5131,-6.5358,-6.5248,-6.5275,-6.5289,-6.5358,-6.5357,-6.5396,-6.5419,-6.542,-6.5379,-6.5448,-6.5468,-6.5613,-6.571,-6.5525,-6.5534,-6.5996,-6.6006,-6.6016,-6.6158,0,0,0,0,0,0,-6.5109,-6.513,-6.5363,-6.537,-6.5189,-6.5277,-6.529,-6.5351,-6.5408,-6.5411,-6.534,-6.533,-6.5452,-6.5467,-6.5483,-6.5707,-6.551,-6.552,-6.5526,-6.6004,-6.6012,-6.6019,0,0,0,0,0,0,-6.5114,-6.5137,-6.5366,-6.5293,-6.5292,-6.5266,-6.5278,-6.5398,-6.5409,-6.5326,-6.5319,-6.5335,-6.5427,-6.5467,-6.5479,-6.5667,-6.5499,-6.5509,-6.5515,-6.5519,-6.601,-6.6017,0,0,0,0,0,0,-6.5123,-6.5142,-6.5291,-6.529,-6.5289,-6.5371,-6.5372,-6.5514,-6.5349,-6.5324,-6.5333,-6.5326,-6.5429,-6.5441,-6.5477,-6.566,-6.5665,-6.55,-6.5506,-6.5511,-6.5513,0,0,0,0,0,0,0,-6.5131,-6.5008,-6.5319,-6.5288,-6.5286,-6.5439,-6.5441,-6.5443,-6.5347,-6.5341,-6.5335,-6.5329,-6.5446,-6.5457,-6.5467,-6.5654,0,0,-6.5499,-6.5503,0,0,0,0,0,0,0,0,-6.4999,-6.5006,-6.5319,-6.532,-6.5322,-6.5439,-6.5441,-6.5443,-6.5346,-6.5341,-6.5336,-6.5331,-6.5449,-6.5457,-6.5466,0,0,0,0,0,0,0,0,0,0,0,0,0,0,0,-6.5319,-6.532,0,-6.544,-6.5441,-6.5442,-6.5345,-6.5341,-6.5337,-6.5333,-6.5451,-6.5458,-6.5465,0,0,0,0,0,0,0,0,0,0,0,0,0,0,0,0,0,0,0,0,0,0,0,0,0,0,0,0,0,0,0,0,0,0,0,0,0,0,0,0,0,0,0,0,0,0,0,0,0,0,0,0,0,0,0,0,0,0,0,0,0,0,0,0,0,0,0,0,0]}]]]